Weather History for Las Vegas, NV

Change the Weather History Date:

Wednesday, September 25, 2013

  Actual Average Record
Temperature  
Mean Temperature 79 °F 79 °F  
Max Temperature 88 °F 90 °F 106 °F (1947)
Min Temperature 69 °F 67 °F 47 °F (1945)
Degree Days  
Heating Degree Days 0 0  
Month to date heating degree days 0 0  
Since 1 July heating degree days 0 0  
Cooling Degree Days 14 14  
Month to date cooling degree days 459 466  
Year to date cooling degree days 3631 3315  
Growing Degree Days 30 (Base 50)    
Moisture  
Dew Point 29 °F    
Average Humidity 18    
Maximum Humidity 29    
Minimum Humidity 6    
Precipitation  
Precipitation 0.00 in 0.00 in 1.09 in (1939)
Month to date precipitation 0.35 0.22  
Year to date precipitation 1.54 3.03  
Snow  
Snow 0.00 in 0.00 in 0.00 in ()
Month to date snowfall 0.0 0.0  
Since 1 July snowfall 0.0 0.0  
Since 1 September snowfall 0.0 0.0  
Snow Depth 0.00 in    
Sea Level Pressure  
Sea Level Pressure 29.47 in    
Wind  
Wind Speed 22 mph (SSW)    
Max Wind Speed 32 mph    
Max Gust Speed 44 mph    
Visibility 10 miles    
Events      
T = Trace of Precipitation, MM = Missing Value Source: NWS Daily Summary

Daily Weather History Graph

Daily Weather History Graph

Search for Another Location

Airport:

Trip Planner

Search our weather history database for the weather conditions in past years. The results will help you decide how hot, cold, wet, or windy it might be!

Date:

Astronomy

Sep. 25, 2013 Rise Set
Actual Time 6:31 AM PDT 6:32 PM PDT
Civil Twilight 6:05 AM PDT 6:58 PM PDT
Nautical Twilight 5:35 AM PDT 7:27 PM PDT
Astronomical Twilight 5:05 AM PDT 7:58 PM PDT
Moon 10:52 PM PDT (9/25) 12:30 PM PDT (9/25)
Length of Visible Light 12h 52m
Length of Day
12h 01m
Waning Gibbous, 63% of the Moon is Illuminated
Sep 25
Waning Gibbous
Sep 26
Last Quarter
Oct 4
New
Oct 11
First Quarter
Oct 18
Full

Hourly Weather History & Observations

Time (PDT) Temp. Dew Point Humidity Pressure Visibility Wind Dir Wind Speed Gust Speed Precip Events Conditions
12:56 AM 81.0 °F 30.0 °F 16% 29.59 in 10.0 mi South 18.4 mph 27.6 mph N/A   Clear
1:56 AM 79.0 °F 30.9 °F 17% 29.56 in 10.0 mi South 16.1 mph 24.2 mph N/A   Clear
2:56 AM 77.0 °F 32.0 °F 19% 29.53 in 10.0 mi South 16.1 mph 24.2 mph N/A   Clear
3:56 AM 77.0 °F 33.1 °F 20% 29.54 in 10.0 mi South 20.7 mph 31.1 mph N/A   Clear
4:56 AM 75.9 °F 35.1 °F 23% 29.53 in 10.0 mi South 18.4 mph 29.9 mph N/A   Clear
5:56 AM 75.0 °F 34.0 °F 22% 29.53 in 10.0 mi South 18.4 mph 28.8 mph N/A   Clear
6:56 AM 75.0 °F 33.1 °F 22% 29.54 in 10.0 mi South 16.1 mph 29.9 mph N/A   Clear
7:56 AM 75.9 °F 35.1 °F 23% 29.52 in 10.0 mi South 25.3 mph 34.5 mph N/A   Clear
8:56 AM 78.1 °F 33.1 °F 19% 29.53 in 10.0 mi South 21.9 mph 35.7 mph N/A   Clear
9:56 AM 80.1 °F 30.9 °F 17% 29.53 in 10.0 mi South 24.2 mph 39.1 mph N/A   Clear
10:56 AM 81.0 °F 30.0 °F 16% 29.51 in 10.0 mi South 24.2 mph 35.7 mph N/A   Clear
11:56 AM 82.9 °F 24.1 °F 12% 29.49 in 10.0 mi South 27.6 mph 40.3 mph N/A   Clear
12:56 PM 84.9 °F 21.9 °F 10% 29.46 in 10.0 mi SSW 28.8 mph 40.3 mph N/A   Clear
1:56 PM 87.1 °F 21.9 °F 9% 29.43 in 10.0 mi SSW 25.3 mph 39.1 mph N/A   Clear
2:56 PM 87.1 °F 18.0 °F 8% 29.41 in 10.0 mi SSW 24.2 mph 40.3 mph N/A   Clear
3:56 PM 87.1 °F 19.0 °F 8% 29.39 in 10.0 mi South 24.2 mph 43.7 mph N/A   Clear
4:56 PM 86.0 °F 14.0 °F 7% 29.37 in 10.0 mi SSW 29.9 mph 43.7 mph N/A   Clear
5:56 PM 84.0 °F 19.0 °F 9% 29.37 in 10.0 mi SSW 19.6 mph 31.1 mph N/A   Clear
6:56 PM 81.0 °F 23.0 °F 12% 29.38 in 10.0 mi SSW 18.4 mph 39.1 mph N/A   Clear
7:56 PM 79.0 °F 28.0 °F 15% 29.40 in 10.0 mi SSW 16.1 mph 28.8 mph N/A   Clear
8:56 PM 77.0 °F 33.1 °F 20% 29.42 in 10.0 mi SSW 20.7 mph 32.2 mph N/A   Clear
9:56 PM 73.0 °F 36.0 °F 26% 29.43 in 9.0 mi South 28.8 mph 40.3 mph N/A   Clear
10:56 PM 72.0 °F 37.0 °F 28% 29.44 in 9.0 mi SSW 23.0 mph 39.1 mph N/A   Clear
11:56 PM 70.0 °F 34.0 °F 27% 29.48 in 9.0 mi South 17.3 mph 33.4 mph N/A   Clear